Lid_Strength_Index
7 9 9 10 10 11 11 11 12 12 13 13 13 14 14 14 14 14 14 15 15 14
8 9 9 10 10 11 11 12 14 14 14 14 14 15 15 15 16 15 15 16 16 15
9 9 11 12 12 13 13 14 14 14 15 15 15 15 16 16 16 16 16 16 16 16
11 12 13 13 13 14 14 14 14 15 15 16 16 16 16 17 17 16 17 16 16 16
12 13 14 14 14 14 14 14 15 15 16 17 17 17 17 18 17 17 17 16 16 16
13 13 14 14 15 15 15 15 16 16 16 17 17 18 17 17 17 17 17 17 17 17
14 14 14 14 15 15 15 16 16 16 16 16 17 17 17 17 17 17 17 17 17 17
15 15 15 15 15 15 15 16 16 16 16 16 16 16 17 17 17 17 17 17 16 16
16 15 16 16 16 16 16 16 16 16 16 16 16 15 15 16 17 17 17 17 17 16
15 16 17 16 16 17 17 17 17 17 17 17 16 14 14 14 16 16 17 17 17 17
16 17 17 17 17 17 17 17 17 17 17 17 17 14 14 14 15 16 16 16 16 16
16 17 17 17 18 17 17 17 18 17 18 17 17 15 14 14 15 15 15 15 15 15
17 17 17 17 18 17 17 17 17 17 17 17 17 15 14 14 15 15 15 14 14 14
17 18 18 18 18 18 18 18 18 18 17 17 16 16 13 13 14 15 15 15 14 14